Russell, KS

5:15 PM CDT on October 01, 2016 (GMT -0500)
Russell Municipal

Weather History for KRSL - August, 2013

Change the Weather History Date:

Tuesday, August 20, 2013

  Actual Average Record
Temperature  
Mean Temperature 78 °F -  
Max Temperature 90 °F 89 °F 104 °F (1952)
Min Temperature 66 °F 65 °F 50 °F (1950)
Cooling Degree Days 13    
Growing Degree Days 28 (Base 50)    
Moisture  
Dew Point 65 °F    
Average Humidity 67    
Maximum Humidity 90    
Minimum Humidity 45    
Precipitation  
Precipitation 0.00 in - - ()
Sea Level Pressure  
Sea Level Pressure 29.94 in    
Wind  
Wind Speed 14 mph (South)    
Max Wind Speed 20 mph    
Max Gust Speed 28 mph    
Visibility 10 miles    
Events      
Averages and records for this station are not official NWS values.
T = Trace of Precipitation, MM = Missing Value Source: NWS Daily Summary

Daily Weather History Graph

Daily Weather History Graph

Search for Another Location

Airport or City:

Trip Planner

Search our weather history database for the weather conditions in past years. The results will help you decide how hot, cold, wet, or windy it might be!

Date:

Astronomy

Aug. 20, 2013 Rise Set
Actual Time 6:53 AM CDT 8:22 PM CDT
Civil Twilight 6:25 AM CDT 8:50 PM CDT
Nautical Twilight 5:51 AM CDT 9:24 PM CDT
Astronomical Twilight 5:16 AM CDT 9:59 PM CDT
Moon 7:55 PM CDT (8/20) 6:25 AM CDT (8/20)
Length of Visible Light 14h 25m
Length of Day
13h 29m
Full, 100% of the Moon is Illuminated
Aug 20
Full
Aug 20
Full
Aug 28
Last Quarter
Sep 5
New
Sep 12
First Quarter

Hourly Weather History & Observations

Time (CDT) Temp. Heat Index Dew Point Humidity Pressure Visibility Wind Dir Wind Speed Gust Speed Precip Events Conditions
12:53 AM 71.1 °F - 66.0 °F 84% 29.95 in 10.0 mi South 12.7 mph - N/A   Clear
1:53 AM 71.1 °F - 64.9 °F 81% 29.94 in 10.0 mi South 12.7 mph - N/A   Clear
2:53 AM 70.0 °F - 64.9 °F 84% 29.94 in 10.0 mi South 13.8 mph - N/A   Clear
3:53 AM 69.1 °F - 64.9 °F 87% 29.94 in 10.0 mi South 12.7 mph - N/A   Clear
4:53 AM 69.1 °F - 64.0 °F 84% 29.94 in 9.0 mi South 12.7 mph - N/A   Clear
5:53 AM 68.0 °F - 64.0 °F 87% 29.94 in 9.0 mi South 11.5 mph - N/A   Clear
6:53 AM 66.9 °F - 64.0 °F 90% 29.96 in 7.0 mi North - - N/A   Clear
7:53 AM 68.0 °F - 64.0 °F 87% 29.97 in 8.0 mi North - - N/A   Clear
8:53 AM 72.0 °F - 64.0 °F 76% 29.97 in 10.0 mi SSW 16.1 mph - N/A   Clear
9:53 AM 75.9 °F - 64.0 °F 67% 29.98 in 10.0 mi South 16.1 mph 25.3 mph N/A   Clear
10:53 AM 81.0 °F 82.7 °F 64.9 °F 58% 29.98 in 10.0 mi SSW 17.3 mph 24.2 mph N/A   Clear
11:53 AM 82.9 °F 84.4 °F 64.0 °F 53% 29.96 in 10.0 mi South 18.4 mph 27.6 mph N/A   Clear
12:53 PM 86.0 °F 87.3 °F 64.0 °F 48% 29.94 in 10.0 mi SSW 17.3 mph 25.3 mph N/A   Clear
1:53 PM 87.1 °F 89.2 °F 66.0 °F 49% 29.93 in 10.0 mi South 15.0 mph 24.2 mph N/A   Clear
2:53 PM 89.1 °F 92.1 °F 66.9 °F 48% 29.91 in 10.0 mi South 17.3 mph - N/A   Clear
3:53 PM 90.0 °F 92.4 °F 66.0 °F 45% 29.91 in 10.0 mi South 16.1 mph - N/A   Clear
4:53 PM 89.1 °F 91.0 °F 64.9 °F 45% 29.90 in 10.0 mi South 19.6 mph 25.3 mph N/A   Clear
5:53 PM 88.0 °F 90.3 °F 66.0 °F 48% 29.90 in 10.0 mi South 12.7 mph 21.9 mph N/A   Clear
6:53 PM 87.1 °F 89.2 °F 66.0 °F 49% 29.90 in 10.0 mi SSE 12.7 mph - N/A   Clear
7:53 PM 82.9 °F 85.0 °F 66.0 °F 56% 29.90 in 10.0 mi SSE 10.4 mph - N/A   Clear
8:53 PM 79.0 °F - 66.0 °F 64% 29.92 in 10.0 mi SSE 9.2 mph - N/A   Clear
9:53 PM 75.9 °F - 64.9 °F 69% 29.94 in 10.0 mi SSE 11.5 mph - N/A   Clear
10:53 PM 73.9 °F - 64.9 °F 73% 29.94 in 10.0 mi SSE 11.5 mph - N/A   Clear
11:53 PM 73.9 °F - 64.9 °F 73% 29.94 in 10.0 mi North - - N/A   Clear